Time,TemperatureF,DewpointF,PressureIn,WindDirection,WindDirectionDegrees,WindSpeedMPH,WindSpeedGustMPH,Humidity,HourlyPrecipIn,Conditions,Clouds,dailyrainin,SoftwareType,DateUTC
2013-06-27 00:01:00,72.2,68.8,29.84,SSW,207,4.0,4.0,89,0.00,,,0.00,Wunderground v.1.15,2013-06-27 04:01:00,
2013-06-27 00:02:00,72.2,68.8,29.84,SSW,207,4.0,4.0,89,0.00,,,0.00,Wunderground v.1.15,2013-06-27 04:02:00,
2013-06-27 00:03:00,72.2,68.8,29.84,SSW,207,4.0,4.0,89,0.00,,,0.00,Wunderground v.1.15,2013-06-27 04:03:00,
2013-06-27 00:05:00,72.2,68.8,29.84,SSW,197,1.0,4.0,89,0.00,,,0.00,Wunderground v.1.15,2013-06-27 04:05:00,
2013-06-27 00:11:00,72.1,69.0,29.84,SSW,200,0.0,2.0,90,0.00,,,0.00,Wunderground v.1.15,2013-06-27 04:11:00,
2013-06-27 00:16:00,71.9,68.8,29.84,SSW,201,1.0,2.0,90,0.00,,,0.00,Wunderground v.1.15,2013-06-27 04:16:00,
2013-06-27 00:22:00,71.8,68.7,29.85,SSW,199,2.0,2.0,90,0.00,,,0.00,Wunderground v.1.15,2013-06-27 04:22:00,
2013-06-27 00:28:00,71.7,68.6,29.85,SSW,209,0.0,2.0,90,0.00,,,0.00,Wunderground v.1.15,2013-06-27 04:28:00,
2013-06-27 00:34:00,71.6,68.5,29.85,SSW,200,1.0,5.0,90,0.00,,,0.00,Wunderground v.1.15,2013-06-27 04:34:00,
2013-06-27 00:40:00,71.6,68.8,29.84,SSW,211,2.0,3.0,91,0.00,,,0.00,Wunderground v.1.15,2013-06-27 04:40:00,
2013-06-27 00:45:00,71.6,68.8,29.84,SSW,211,2.0,3.0,91,0.00,,,0.00,Wunderground v.1.15,2013-06-27 04:45:00,
2013-06-27 00:51:00,71.5,68.7,29.84,SSW,209,2.0,3.0,91,0.00,,,0.00,Wunderground v.1.15,2013-06-27 04:51:00,
2013-06-27 00:57:00,71.5,68.7,29.84,SSW,204,2.0,3.0,91,0.00,,,0.00,Wunderground v.1.15,2013-06-27 04:57:00,
2013-06-27 01:02:00,71.3,68.5,29.84,SW,214,0.0,2.0,91,0.00,,,0.00,Wunderground v.1.15,2013-06-27 05:02:00,
2013-06-27 01:08:00,71.3,68.5,29.84,SW,214,2.0,2.0,91,0.00,,,0.00,Wunderground v.1.15,2013-06-27 05:08:00,
2013-06-27 01:13:00,71.3,68.5,29.84,SSW,193,3.0,4.0,91,0.00,,,0.00,Wunderground v.1.15,2013-06-27 05:13:00,
2013-06-27 01:19:00,71.3,68.5,29.83,SSW,204,1.0,4.0,91,0.00,,,0.00,Wunderground v.1.15,2013-06-27 05:19:00,
2013-06-27 01:25:00,71.3,68.5,29.83,SSW,193,1.0,4.0,91,0.00,,,0.00,Wunderground v.1.15,2013-06-27 05:25:00,
2013-06-27 01:30:00,71.1,68.3,29.83,SSW,193,0.0,1.0,91,0.00,,,0.00,Wunderground v.1.15,2013-06-27 05:30:00,
2013-06-27 01:35:00,70.9,68.5,29.82,SSW,193,0.0,1.0,92,0.00,,,0.00,Wunderground v.1.15,2013-06-27 05:35:00,
2013-06-27 01:41:00,70.8,68.4,29.82,SSW,193,3.0,3.0,92,0.00,,,0.00,Wunderground v.1.15,2013-06-27 05:41:00,
2013-06-27 01:47:00,70.7,68.3,29.82,SSW,193,2.0,3.0,92,0.00,,,0.00,Wunderground v.1.15,2013-06-27 05:47:00,
2013-06-27 01:52:00,70.7,68.3,29.82,SSW,193,1.0,2.0,92,0.00,,,0.00,Wunderground v.1.15,2013-06-27 05:52:00,
2013-06-27 01:57:00,70.7,68.6,29.82,SSW,193,1.0,2.0,93,0.00,,,0.00,Wunderground v.1.15,2013-06-27 05:57:00,
2013-06-27 02:02:00,70.5,68.1,29.82,SSW,193,0.0,2.0,92,0.00,,,0.00,Wunderground v.1.15,2013-06-27 06:02:00,
2013-06-27 02:07:00,70.5,68.4,29.82,SSW,193,0.0,2.0,93,0.00,,,0.00,Wunderground v.1.15,2013-06-27 06:07:00,
2013-06-27 02:12:00,70.5,68.4,29.82,SSW,193,0.0,1.0,93,0.00,,,0.00,Wunderground v.1.15,2013-06-27 06:12:00,
2013-06-27 02:17:00,70.4,68.3,29.82,SSW,193,0.0,1.0,93,0.00,,,0.00,Wunderground v.1.15,2013-06-27 06:17:00,
2013-06-27 02:22:00,70.2,68.1,29.82,SSW,193,0.0,1.0,93,0.00,,,0.00,Wunderground v.1.15,2013-06-27 06:22:00,
2013-06-27 02:27:00,70.1,68.0,29.82,SSW,193,1.0,2.0,93,0.00,,,0.00,Wunderground v.1.15,2013-06-27 06:27:00,
2013-06-27 02:32:00,70.2,68.4,29.82,SSW,193,0.0,1.0,94,0.00,,,0.00,Wunderground v.1.15,2013-06-27 06:32:00,
2013-06-27 02:37:00,70.2,68.4,29.82,SSW,193,0.0,1.0,94,0.00,,,0.00,Wunderground v.1.15,2013-06-27 06:37:00,
2013-06-27 02:42:00,70.1,68.3,29.82,SSW,193,0.0,2.0,94,0.00,,,0.00,Wunderground v.1.15,2013-06-27 06:42:00,
2013-06-27 02:47:00,70.0,67.9,29.82,SSW,193,0.0,2.0,93,0.00,,,0.00,Wunderground v.1.15,2013-06-27 06:47:00,
2013-06-27 02:52:00,69.9,68.1,29.82,SSW,193,1.0,3.0,94,0.00,,,0.00,Wunderground v.1.15,2013-06-27 06:52:00,
2013-06-27 02:57:00,69.9,68.1,29.82,SSW,193,0.0,3.0,94,0.00,,,0.00,Wunderground v.1.15,2013-06-27 06:57:00,
2013-06-27 03:02:00,69.9,68.1,29.82,SSW,193,3.0,3.0,94,0.00,,,0.00,Wunderground v.1.15,2013-06-27 07:02:00,
2013-06-27 03:07:00,69.9,68.1,29.82,SSW,193,1.0,3.0,94,0.00,,,0.00,Wunderground v.1.15,2013-06-27 07:07:00,
2013-06-27 03:12:00,69.8,68.0,29.82,SSW,193,0.0,2.0,94,0.00,,,0.00,Wunderground v.1.15,2013-06-27 07:12:00,
2013-06-27 03:17:00,69.8,68.0,29.81,SSW,193,0.0,2.0,94,0.00,,,0.00,Wunderground v.1.15,2013-06-27 07:17:00,
2013-06-27 03:22:00,69.7,67.9,29.81,SSW,193,0.0,0.0,94,0.00,,,0.00,Wunderground v.1.15,2013-06-27 07:22:00,
2013-06-27 03:27:00,69.6,67.8,29.81,SSW,193,1.0,1.0,94,0.00,,,0.00,Wunderground v.1.15,2013-06-27 07:27:00,
2013-06-27 03:32:00,69.5,68.0,29.81,SSW,193,1.0,1.0,95,0.00,,,0.00,Wunderground v.1.15,2013-06-27 07:32:00,
2013-06-27 03:37:00,69.4,67.6,29.81,SSW,193,2.0,2.0,94,0.00,,,0.00,Wunderground v.1.15,2013-06-27 07:37:00,
2013-06-27 03:42:00,69.3,67.5,29.80,SSW,193,0.0,0.0,94,0.00,,,0.00,Wunderground v.1.15,2013-06-27 07:42:00,
2013-06-27 03:47:00,69.1,67.6,29.80,SSW,193,0.0,1.0,95,0.00,,,0.00,Wunderground v.1.15,2013-06-27 07:47:00,
2013-06-27 03:52:00,69.2,67.7,29.80,SSW,193,0.0,0.0,95,0.00,,,0.00,Wunderground v.1.15,2013-06-27 07:52:00,
2013-06-27 03:57:00,69.1,67.6,29.80,SSW,193,0.0,1.0,95,0.00,,,0.00,Wunderground v.1.15,2013-06-27 07:57:00,
2013-06-27 04:02:00,69.1,67.6,29.80,SSW,193,0.0,1.0,95,0.00,,,0.00,Wunderground v.1.15,2013-06-27 08:02:00,
2013-06-27 04:07:00,69.0,67.5,29.80,SSW,193,0.0,1.0,95,0.00,,,0.00,Wunderground v.1.15,2013-06-27 08:07:00,
2013-06-27 04:12:00,69.0,67.5,29.79,SSW,193,0.0,1.0,95,0.00,,,0.00,Wunderground v.1.15,2013-06-27 08:12:00,
2013-06-27 04:17:00,68.8,67.3,29.80,SSW,193,0.0,1.0,95,0.00,,,0.00,Wunderground v.1.15,2013-06-27 08:17:00,
2013-06-27 04:22:00,68.8,67.3,29.80,SSW,193,0.0,1.0,95,0.00,,,0.00,Wunderground v.1.15,2013-06-27 08:22:00,
2013-06-27 04:27:00,68.8,67.3,29.80,SSW,193,0.0,1.0,95,0.00,,,0.00,Wunderground v.1.15,2013-06-27 08:27:00,
2013-06-27 04:32:00,68.8,67.3,29.80,SSW,193,0.0,0.0,95,0.00,,,0.00,Wunderground v.1.15,2013-06-27 08:32:00,
2013-06-27 04:37:00,68.7,67.2,29.80,SSW,193,0.0,0.0,95,0.00,,,0.00,Wunderground v.1.15,2013-06-27 08:37:00,
2013-06-27 04:42:00,68.7,67.2,29.81,SSW,193,0.0,1.0,95,0.00,,,0.00,Wunderground v.1.15,2013-06-27 08:42:00,
2013-06-27 04:47:00,68.7,67.5,29.81,SSW,193,0.0,1.0,96,0.00,,,0.00,Wunderground v.1.15,2013-06-27 08:47:00,
2013-06-27 04:52:00,68.6,67.4,29.80,SSW,193,0.0,1.0,96,0.00,,,0.00,Wunderground v.1.15,2013-06-27 08:52:00,
2013-06-27 04:57:00,68.5,67.3,29.80,SSW,193,0.0,1.0,96,0.00,,,0.00,Wunderground v.1.15,2013-06-27 08:57:00,
2013-06-27 05:02:00,68.4,67.2,29.80,SSW,193,0.0,0.0,96,0.00,,,0.00,Wunderground v.1.15,2013-06-27 09:02:00,
2013-06-27 05:07:00,68.5,67.3,29.81,SSW,193,0.0,1.0,96,0.00,,,0.00,Wunderground v.1.15,2013-06-27 09:07:00,
2013-06-27 05:13:00,68.5,67.3,29.81,SSW,193,0.0,1.0,96,0.00,,,0.00,Wunderground v.1.15,2013-06-27 09:13:00,
2013-06-27 05:18:00,68.5,67.3,29.81,SSW,193,0.0,1.0,96,0.00,,,0.00,Wunderground v.1.15,2013-06-27 09:18:00,
2013-06-27 05:23:00,68.5,67.3,29.81,SSW,193,0.0,1.0,96,0.00,,,0.00,Wunderground v.1.15,2013-06-27 09:23:00,
2013-06-27 05:28:00,68.5,67.3,29.81,SSW,193,1.0,2.0,96,0.00,,,0.00,Wunderground v.1.15,2013-06-27 09:28:00,
2013-06-27 05:33:00,68.5,67.3,29.82,SSW,193,0.0,0.0,96,0.00,,,0.00,Wunderground v.1.15,2013-06-27 09:33:00,
2013-06-27 05:38:00,68.7,67.5,29.82,SSW,193,1.0,1.0,96,0.00,,,0.00,Wunderground v.1.15,2013-06-27 09:38:00,
2013-06-27 05:43:00,68.8,67.6,29.81,SSW,193,0.0,2.0,96,0.00,,,0.00,Wunderground v.1.15,2013-06-27 09:43:00,
2013-06-27 05:48:00,68.9,67.7,29.81,SSW,193,0.0,2.0,96,0.00,,,0.00,Wunderground v.1.15,2013-06-27 09:48:00,
2013-06-27 05:53:00,69.0,67.8,29.81,SSW,193,0.0,1.0,96,0.00,,,0.00,Wunderground v.1.15,2013-06-27 09:53:00,
2013-06-27 05:58:00,69.2,68.0,29.81,SSW,193,0.0,2.0,96,0.00,,,0.00,Wunderground v.1.15,2013-06-27 09:58:00,
2013-06-27 06:03:00,69.3,68.1,29.81,SSW,193,0.0,1.0,96,0.00,,,0.00,Wunderground v.1.15,2013-06-27 10:03:00,
2013-06-27 06:08:00,69.4,68.2,29.81,SSW,193,0.0,1.0,96,0.00,,,0.00,Wunderground v.1.15,2013-06-27 10:08:00,
2013-06-27 06:13:00,69.4,68.2,29.81,SSW,193,0.0,2.0,96,0.00,,,0.00,Wunderground v.1.15,2013-06-27 10:13:00,
2013-06-27 06:18:00,69.4,68.2,29.81,SSW,193,0.0,2.0,96,0.00,,,0.00,Wunderground v.1.15,2013-06-27 10:18:00,
2013-06-27 06:23:00,69.5,68.3,29.81,SSW,193,0.0,1.0,96,0.00,,,0.00,Wunderground v.1.15,2013-06-27 10:23:00,
2013-06-27 06:28:00,69.5,68.3,29.81,SSW,193,0.0,1.0,96,0.00,,,0.00,Wunderground v.1.15,2013-06-27 10:28:00,
2013-06-27 06:33:00,69.6,68.4,29.81,SSW,207,0.0,1.0,96,0.00,,,0.00,Wunderground v.1.15,2013-06-27 10:33:00,
2013-06-27 06:38:00,69.6,68.7,29.81,SSW,207,0.0,1.0,97,0.00,,,0.00,Wunderground v.1.15,2013-06-27 10:38:00,
2013-06-27 06:43:00,69.9,69.0,29.81,SSW,207,0.0,1.0,97,0.00,,,0.00,Wunderground v.1.15,2013-06-27 10:43:00,
2013-06-27 06:48:00,69.9,69.0,29.81,SSW,207,0.0,1.0,97,0.00,,,0.00,Wunderground v.1.15,2013-06-27 10:48:00,
2013-06-27 06:53:00,70.0,69.1,29.81,NNE,17,0.0,2.0,97,0.00,,,0.00,Wunderground v.1.15,2013-06-27 10:53:00,
2013-06-27 06:58:00,70.0,69.1,29.81,NNE,17,0.0,2.0,97,0.00,,,0.00,Wunderground v.1.15,2013-06-27 10:58:00,
2013-06-27 07:03:00,70.1,69.2,29.80,NNE,17,0.0,1.0,97,0.00,,,0.00,Wunderground v.1.15,2013-06-27 11:03:00,
2013-06-27 07:08:00,70.0,68.8,29.80,NE,37,0.0,2.0,96,0.00,,,0.00,Wunderground v.1.15,2013-06-27 11:08:00,
2013-06-27 07:13:00,69.9,69.0,29.80,NE,37,0.0,2.0,97,0.00,,,0.00,Wunderground v.1.15,2013-06-27 11:13:00,
2013-06-27 07:18:00,69.9,69.0,29.80,NE,37,0.0,2.0,97,0.00,,,0.00,Wunderground v.1.15,2013-06-27 11:18:00,
2013-06-27 07:23:00,70.1,69.2,29.80,NE,37,0.0,1.0,97,0.00,,,0.00,Wunderground v.1.15,2013-06-27 11:23:00,
2013-06-27 07:28:00,70.2,69.3,29.79,NE,37,0.0,1.0,97,0.00,,,0.00,Wunderground v.1.15,2013-06-27 11:28:00,
2013-06-27 07:33:00,70.3,69.4,29.79,NE,37,0.0,1.0,97,0.00,,,0.00,Wunderground v.1.15,2013-06-27 11:33:00,
2013-06-27 07:38:00,70.2,69.0,29.79,NE,36,0.0,4.0,96,0.00,,,0.00,Wunderground v.1.15,2013-06-27 11:38:00,
2013-06-27 07:43:00,70.1,68.9,29.79,NE,36,0.0,1.0,96,0.00,,,0.00,Wunderground v.1.15,2013-06-27 11:43:00,
2013-06-27 07:48:00,70.1,68.9,29.79,NE,36,0.0,1.0,96,0.00,,,0.00,Wunderground v.1.15,2013-06-27 11:48:00,
2013-06-27 07:53:00,70.2,69.0,29.79,NE,37,0.0,3.0,96,0.00,,,0.00,Wunderground v.1.15,2013-06-27 11:53:00,
2013-06-27 07:58:00,70.4,69.5,29.79,NE,37,0.0,3.0,97,0.00,,,0.00,Wunderground v.1.15,2013-06-27 11:58:00,
2013-06-27 08:03:00,70.8,69.9,29.79,NE,37,0.0,1.0,97,0.00,,,0.00,Wunderground v.1.15,2013-06-27 12:03:00,
2013-06-27 08:08:00,70.7,69.5,29.79,NE,37,0.0,1.0,96,0.00,,,0.00,Wunderground v.1.15,2013-06-27 12:08:00,
2013-06-27 08:13:00,70.8,69.6,29.79,South,184,1.0,3.0,96,0.00,,,0.00,Wunderground v.1.15,2013-06-27 12:13:00,
2013-06-27 08:19:00,71.1,70.2,29.79,South,184,0.0,3.0,97,0.00,,,0.00,Wunderground v.1.15,2013-06-27 12:19:00,
2013-06-27 08:24:00,70.7,69.5,29.79,East,101,0.0,3.0,96,0.00,,,0.00,Wunderground v.1.15,2013-06-27 12:24:00,
2013-06-27 08:29:00,71.2,70.0,29.79,East,101,0.0,3.0,96,0.00,,,0.00,Wunderground v.1.15,2013-06-27 12:29:00,
2013-06-27 08:34:00,71.5,70.3,29.79,East,101,0.0,2.0,96,0.00,,,0.00,Wunderground v.1.15,2013-06-27 12:34:00,
2013-06-27 08:39:00,71.9,70.4,29.79,SSW,210,0.0,4.0,95,0.00,,,0.00,Wunderground v.1.15,2013-06-27 12:39:00,
2013-06-27 08:44:00,71.8,70.3,29.79,WSW,245,1.0,1.0,95,0.00,,,0.00,Wunderground v.1.15,2013-06-27 12:44:00,
2013-06-27 08:49:00,71.5,70.0,29.79,SSW,202,0.0,5.0,95,0.00,,,0.00,Wunderground v.1.15,2013-06-27 12:49:00,
2013-06-27 08:54:00,71.7,70.2,29.79,SSW,202,0.0,1.0,95,0.00,,,0.00,Wunderground v.1.15,2013-06-27 12:54:00,
2013-06-27 08:59:00,71.6,70.1,29.79,NW,322,0.0,3.0,95,0.00,,,0.00,Wunderground v.1.15,2013-06-27 12:59:00,
2013-06-27 09:04:00,71.7,69.9,29.78,WNW,300,0.0,2.0,94,0.00,,,0.00,Wunderground v.1.15,2013-06-27 13:04:00,
2013-06-27 09:09:00,71.7,69.9,29.78,NNW,330,0.0,2.0,94,0.00,,,0.00,Wunderground v.1.15,2013-06-27 13:09:00,
2013-06-27 09:10:00,71.7,69.9,29.78,NNW,330,0.0,0.0,94,0.00,,,0.00,Wunderground v.1.15,2013-06-27 13:10:00,
2013-06-27 09:15:00,71.6,69.8,29.78,NNW,330,1.0,1.0,94,0.00,,,0.00,Wunderground v.1.15,2013-06-27 13:15:00,
2013-06-27 09:20:00,72.2,70.7,29.78,NNW,330,0.0,1.0,95,0.00,,,0.00,Wunderground v.1.15,2013-06-27 13:20:00,
2013-06-27 09:25:00,72.0,70.2,29.78,North,359,3.0,3.0,94,0.00,,,0.00,Wunderground v.1.15,2013-06-27 13:25:00,
2013-06-27 09:30:00,71.8,69.7,29.78,NNE,32,0.0,1.0,93,0.00,,,0.00,Wunderground v.1.15,2013-06-27 13:30:00,
2013-06-27 09:35:00,71.9,70.1,29.78,SE,132,1.0,4.0,94,0.00,,,0.00,Wunderground v.1.15,2013-06-27 13:35:00,
2013-06-27 09:40:00,72.0,69.9,29.78,WNW,283,1.0,1.0,93,0.00,,,0.00,Wunderground v.1.15,2013-06-27 13:40:00,
2013-06-27 09:45:00,72.1,70.3,29.77,SW,220,2.0,3.0,94,0.00,,,0.00,Wunderground v.1.15,2013-06-27 13:45:00,
2013-06-27 09:50:00,71.9,69.8,29.77,SW,221,2.0,2.0,93,0.00,,,0.00,Wunderground v.1.15,2013-06-27 13:50:00,
2013-06-27 09:55:00,72.1,70.0,29.77,SW,221,0.0,2.0,93,0.00,,,0.00,Wunderground v.1.15,2013-06-27 13:55:00,
2013-06-27 10:00:00,72.5,70.4,29.77,South,187,1.0,1.0,93,0.00,,,0.00,Wunderground v.1.15,2013-06-27 14:00:00,
2013-06-27 10:05:00,72.4,70.3,29.77,South,187,0.0,1.0,93,0.00,,,0.00,Wunderground v.1.15,2013-06-27 14:05:00,
2013-06-27 10:10:00,72.8,70.7,29.77,SW,217,1.0,1.0,93,0.00,,,0.00,Wunderground v.1.15,2013-06-27 14:10:00,
2013-06-27 10:15:00,72.9,70.4,29.77,SW,227,0.0,4.0,92,0.00,,,0.00,Wunderground v.1.15,2013-06-27 14:15:00,
2013-06-27 10:20:00,72.9,70.1,29.76,North,359,2.0,3.0,91,0.00,,,0.00,Wunderground v.1.15,2013-06-27 14:20:00,
2013-06-27 10:25:00,73.8,71.6,29.76,NNW,340,1.0,3.0,93,0.00,,,0.00,Wunderground v.1.15,2013-06-27 14:25:00,
2013-06-27 10:30:00,74.2,71.1,29.76,NNW,335,0.0,1.0,90,0.00,,,0.00,Wunderground v.1.15,2013-06-27 14:30:00,
2013-06-27 10:35:00,74.1,70.6,29.75,ENE,66,1.0,3.0,89,0.00,,,0.00,Wunderground v.1.15,2013-06-27 14:35:00,
2013-06-27 10:40:00,74.8,71.3,29.75,East,90,0.0,1.0,89,0.00,,,0.00,Wunderground v.1.15,2013-06-27 14:40:00,
2013-06-27 10:45:00,74.7,71.2,29.75,NNE,24,1.0,5.0,89,0.00,,,0.00,Wunderground v.1.15,2013-06-27 14:45:00,
2013-06-27 10:50:00,75.4,71.9,29.75,SW,217,1.0,4.0,89,0.00,,,0.00,Wunderground v.1.15,2013-06-27 14:50:00,
2013-06-27 10:55:00,74.9,71.1,29.75,SSW,208,2.0,4.0,88,0.00,,,0.00,Wunderground v.1.15,2013-06-27 14:55:00,
2013-06-27 11:00:00,75.3,71.5,29.75,NE,35,1.0,1.0,88,0.00,,,0.00,Wunderground v.1.15,2013-06-27 15:00:00,
2013-06-27 11:05:00,76.0,71.5,29.75,North,11,3.0,5.0,86,0.00,,,0.00,Wunderground v.1.15,2013-06-27 15:05:00,
2013-06-27 11:10:00,76.2,72.0,29.74,ENE,78,0.0,1.0,87,0.00,,,0.00,Wunderground v.1.15,2013-06-27 15:10:00,
2013-06-27 11:15:00,77.0,72.8,29.74,SE,142,0.0,2.0,87,0.00,,,0.00,Wunderground v.1.15,2013-06-27 15:15:00,
2013-06-27 11:20:00,76.6,72.4,29.74,NNE,26,0.0,1.0,87,0.00,,,0.00,Wunderground v.1.15,2013-06-27 15:20:00,
2013-06-27 11:25:00,76.8,72.3,29.74,SSW,206,1.0,5.0,86,0.00,,,0.00,Wunderground v.1.15,2013-06-27 15:25:00,
2013-06-27 11:30:00,76.7,71.8,29.74,WSW,239,1.0,2.0,85,0.00,,,0.00,Wunderground v.1.15,2013-06-27 15:30:00,
2013-06-27 11:35:00,77.0,72.8,29.74,NE,51,1.0,4.0,87,0.00,,,0.00,Wunderground v.1.15,2013-06-27 15:35:00,
2013-06-27 11:40:00,77.8,72.9,29.73,NNW,330,0.0,2.0,85,0.00,,,0.00,Wunderground v.1.15,2013-06-27 15:40:00,
2013-06-27 11:45:00,78.2,72.6,29.73,ENE,63,3.0,8.0,83,0.00,,,0.00,Wunderground v.1.15,2013-06-27 15:45:00,
2013-06-27 11:50:00,78.8,74.6,29.73,South,182,0.0,2.0,87,0.00,,,0.00,Wunderground v.1.15,2013-06-27 15:50:00,
2013-06-27 11:55:00,79.6,74.3,29.73,SSW,211,2.0,5.0,84,0.00,,,0.00,Wunderground v.1.15,2013-06-27 15:55:00,
2013-06-27 12:00:00,79.1,73.8,29.73,ENE,65,1.0,2.0,84,0.00,,,0.00,Wunderground v.1.15,2013-06-27 16:00:00,
2013-06-27 12:05:00,78.9,72.9,29.72,ENE,69,1.0,5.0,82,0.00,,,0.00,Wunderground v.1.15,2013-06-27 16:05:00,
2013-06-27 12:10:00,78.6,73.0,29.72,North,349,3.0,4.0,83,0.00,,,0.00,Wunderground v.1.15,2013-06-27 16:10:00,
2013-06-27 12:15:00,79.1,73.5,29.72,NE,49,0.0,4.0,83,0.00,,,0.00,Wunderground v.1.15,2013-06-27 16:15:00,
2013-06-27 12:20:00,80.5,73.8,29.72,SW,236,3.0,3.0,80,0.00,,,0.00,Wunderground v.1.15,2013-06-27 16:20:00,
2013-06-27 12:25:00,80.4,74.4,29.71,NE,41,3.0,4.0,82,0.00,,,0.00,Wunderground v.1.15,2013-06-27 16:25:00,
2013-06-27 12:31:00,80.4,74.4,29.71,West,273,1.0,2.0,82,0.00,,,0.00,Wunderground v.1.15,2013-06-27 16:31:00,
2013-06-27 12:35:00,81.4,75.0,29.71,SSW,193,1.0,3.0,81,0.00,,,0.00,Wunderground v.1.15,2013-06-27 16:35:00,
2013-06-27 12:41:00,80.6,74.6,29.71,South,173,2.0,5.0,82,0.00,,,0.00,Wunderground v.1.15,2013-06-27 16:41:00,
2013-06-27 12:46:00,80.5,74.1,29.71,SE,128,0.0,5.0,81,0.00,,,0.00,Wunderground v.1.15,2013-06-27 16:46:00,
2013-06-27 12:51:00,79.9,73.5,29.72,SSW,197,0.0,4.0,81,0.00,,,0.00,Wunderground v.1.15,2013-06-27 16:51:00,
2013-06-27 12:56:00,79.6,73.6,29.72,SSW,194,2.0,4.0,82,0.00,,,0.00,Wunderground v.1.15,2013-06-27 16:56:00,
2013-06-27 13:01:00,79.2,73.2,29.71,East,84,3.0,4.0,82,0.00,,,0.00,Wunderground v.1.15,2013-06-27 17:01:00,
2013-06-27 13:06:00,78.9,73.3,29.71,SSW,207,1.0,5.0,83,0.00,,,0.00,Wunderground v.1.15,2013-06-27 17:06:00,
2013-06-27 13:11:00,78.3,73.1,29.71,North,350,2.0,3.0,84,0.00,,,0.00,Wunderground v.1.15,2013-06-27 17:11:00,
2013-06-27 13:16:00,78.1,73.2,29.71,SSW,198,4.0,4.0,85,0.00,,,0.00,Wunderground v.1.15,2013-06-27 17:16:00,
2013-06-27 13:21:00,77.8,72.9,29.71,South,191,2.0,2.0,85,0.00,,,0.00,Wunderground v.1.15,2013-06-27 17:21:00,
2013-06-27 13:26:00,77.6,72.7,29.71,SSE,161,2.0,6.0,85,0.00,,,0.00,Wunderground v.1.15,2013-06-27 17:26:00,
2013-06-27 13:31:00,77.5,73.0,29.71,WNW,300,1.0,1.0,86,0.00,,,0.00,Wunderground v.1.15,2013-06-27 17:31:00,
2013-06-27 13:36:00,77.9,73.4,29.70,SW,232,0.0,4.0,86,0.00,,,0.00,Wunderground v.1.15,2013-06-27 17:36:00,
2013-06-27 13:41:00,77.9,72.7,29.70,South,186,2.0,5.0,84,0.00,,,0.00,Wunderground v.1.15,2013-06-27 17:41:00,
2013-06-27 13:46:00,77.7,73.2,29.70,SW,227,0.0,5.0,86,0.00,,,0.00,Wunderground v.1.15,2013-06-27 17:46:00,
2013-06-27 13:51:00,77.6,73.1,29.70,ESE,104,0.0,2.0,86,0.00,,,0.00,Wunderground v.1.15,2013-06-27 17:51:00,
2013-06-27 13:56:00,77.3,72.8,29.69,SE,138,0.0,3.0,86,0.00,,,0.00,Wunderground v.1.15,2013-06-27 17:56:00,
2013-06-27 14:01:00,77.2,72.7,29.69,SW,220,4.0,4.0,86,0.00,,,0.00,Wunderground v.1.15,2013-06-27 18:01:00,
2013-06-27 14:06:00,76.9,72.4,29.69,SSW,210,1.0,5.0,86,0.00,,,0.00,Wunderground v.1.15,2013-06-27 18:06:00,
2013-06-27 14:11:00,76.8,72.6,29.69,SSW,193,3.0,7.0,87,0.00,,,0.00,Wunderground v.1.15,2013-06-27 18:11:00,
2013-06-27 14:16:00,76.4,72.6,29.69,WSW,241,0.0,7.0,88,0.00,,,0.00,Wunderground v.1.15,2013-06-27 18:16:00,
2013-06-27 14:21:00,76.0,72.5,29.69,NW,311,0.0,3.0,89,0.00,,,0.00,Wunderground v.1.15,2013-06-27 18:21:00,
2013-06-27 14:26:00,75.3,72.2,29.69,SW,230,2.0,4.0,90,0.00,,,0.00,Wunderground v.1.15,2013-06-27 18:26:00,
2013-06-27 14:31:00,74.9,71.8,29.69,SSW,194,1.0,5.0,90,0.00,,,0.00,Wunderground v.1.15,2013-06-27 18:31:00,
2013-06-27 14:36:00,75.3,72.2,29.69,ENE,76,1.0,6.0,90,0.00,,,0.00,Wunderground v.1.15,2013-06-27 18:36:00,
2013-06-27 14:41:00,75.8,73.0,29.69,SW,236,3.0,3.0,91,0.00,,,0.00,Wunderground v.1.15,2013-06-27 18:41:00,
2013-06-27 14:46:00,76.1,72.6,29.68,SSW,211,1.0,6.0,89,0.00,,,0.00,Wunderground v.1.15,2013-06-27 18:46:00,
2013-06-27 14:51:00,75.9,72.1,29.68,South,180,5.0,5.0,88,0.00,,,0.00,Wunderground v.1.15,2013-06-27 18:51:00,
2013-06-27 14:57:00,75.7,71.9,29.68,SW,234,2.0,5.0,88,0.00,,,0.00,Wunderground v.1.15,2013-06-27 18:57:00,
2013-06-27 15:02:00,75.4,71.6,29.68,SW,225,1.0,5.0,88,0.00,,,0.00,Wunderground v.1.15,2013-06-27 19:02:00,
2013-06-27 15:07:00,75.0,71.2,29.68,South,190,3.0,8.0,88,0.00,,,0.00,Wunderground v.1.15,2013-06-27 19:07:00,
2013-06-27 15:12:00,74.8,71.3,29.68,SW,217,2.0,3.0,89,0.00,,,0.00,Wunderground v.1.15,2013-06-27 19:12:00,
2013-06-27 15:17:00,74.4,70.9,29.68,SW,219,2.0,3.0,89,0.00,,,0.00,Wunderground v.1.15,2013-06-27 19:17:00,
2013-06-27 15:22:00,74.0,70.9,29.68,SSW,209,4.0,5.0,90,0.00,,,0.00,Wunderground v.1.15,2013-06-27 19:22:00,
2013-06-27 15:27:00,73.6,71.1,29.68,SSW,202,1.0,6.0,92,0.00,,,0.00,Wunderground v.1.15,2013-06-27 19:27:00,
2013-06-27 15:32:00,73.3,71.2,29.68,SW,220,1.0,4.0,93,0.00,,,0.00,Wunderground v.1.15,2013-06-27 19:32:00,
2013-06-27 15:37:00,73.2,71.4,29.68,SW,217,0.0,4.0,94,0.00,,,0.00,Wunderground v.1.15,2013-06-27 19:37:00,
2013-06-27 15:42:00,73.7,72.2,29.67,SW,218,0.0,1.0,95,0.00,,,0.00,Wunderground v.1.15,2013-06-27 19:42:00,
2013-06-27 15:47:00,74.1,72.3,29.67,SSW,201,2.0,6.0,94,0.00,,,0.00,Wunderground v.1.15,2013-06-27 19:47:00,
2013-06-27 15:52:00,74.2,72.4,29.67,SSW,193,1.0,3.0,94,0.00,,,0.00,Wunderground v.1.15,2013-06-27 19:52:00,
2013-06-27 15:57:00,74.4,72.2,29.66,SSW,198,0.0,4.0,93,0.00,,,0.00,Wunderground v.1.15,2013-06-27 19:57:00,
2013-06-27 16:02:00,75.1,73.3,29.66,SW,232,1.0,3.0,94,0.00,,,0.00,Wunderground v.1.15,2013-06-27 20:02:00,
2013-06-27 16:07:00,75.7,73.2,29.66,SW,231,2.0,5.0,92,0.00,,,0.00,Wunderground v.1.15,2013-06-27 20:07:00,
2013-06-27 16:12:00,76.0,73.2,29.66,SSW,204,3.0,5.0,91,0.00,,,0.00,Wunderground v.1.15,2013-06-27 20:12:00,
2013-06-27 16:17:00,76.1,72.6,29.66,SW,220,6.0,7.0,89,0.00,,,0.00,Wunderground v.1.15,2013-06-27 20:17:00,
2013-06-27 16:22:00,75.4,71.9,29.66,WSW,240,3.0,7.0,89,0.00,,,0.00,Wunderground v.1.15,2013-06-27 20:22:00,
2013-06-27 16:27:00,75.0,71.5,29.65,SSW,212,2.0,9.0,89,0.00,,,0.00,Wunderground v.1.15,2013-06-27 20:27:00,
2013-06-27 16:33:00,74.9,71.8,29.65,SSW,196,3.0,6.0,90,0.00,,,0.00,Wunderground v.1.15,2013-06-27 20:33:00,
2013-06-27 16:38:00,75.3,72.2,29.65,SW,216,0.0,6.0,90,0.00,,,0.00,Wunderground v.1.15,2013-06-27 20:38:00,
2013-06-27 16:43:00,76.3,72.8,29.64,WNW,286,1.0,2.0,89,0.00,,,0.00,Wunderground v.1.15,2013-06-27 20:43:00,
2013-06-27 16:48:00,76.7,72.9,29.64,SW,221,1.0,5.0,88,0.00,,,0.00,Wunderground v.1.15,2013-06-27 20:48:00,
2013-06-27 16:54:00,77.0,72.1,29.64,SSW,192,6.0,8.0,85,0.00,,,0.00,Wunderground v.1.15,2013-06-27 20:54:00,
2013-06-27 16:59:00,76.5,72.0,29.64,WSW,251,1.0,8.0,86,0.00,,,0.00,Wunderground v.1.15,2013-06-27 20:59:00,
2013-06-27 17:04:00,76.6,72.1,29.64,SSW,213,1.0,6.0,86,0.00,,,0.00,Wunderground v.1.15,2013-06-27 21:04:00,
2013-06-27 17:09:00,77.8,73.3,29.64,SW,214,2.0,7.0,86,0.00,,,0.00,Wunderground v.1.15,2013-06-27 21:09:00,
2013-06-27 17:15:00,78.4,72.8,29.64,WNW,285,4.0,8.0,83,0.00,,,0.00,Wunderground v.1.15,2013-06-27 21:15:00,
2013-06-27 17:20:00,77.6,72.0,29.64,South,191,3.0,8.0,83,0.00,,,0.00,Wunderground v.1.15,2013-06-27 21:20:00,
2013-06-27 17:25:00,77.3,72.1,29.64,South,181,7.0,8.0,84,0.00,,,0.00,Wunderground v.1.15,2013-06-27 21:25:00,
2013-06-27 17:30:00,76.9,71.7,29.64,SW,232,3.0,4.0,84,0.00,,,0.00,Wunderground v.1.15,2013-06-27 21:30:00,
2013-06-27 17:35:00,77.3,72.4,29.64,West,267,1.0,6.0,85,0.00,,,0.00,Wunderground v.1.15,2013-06-27 21:35:00,
2013-06-27 17:41:00,78.2,73.0,29.64,South,180,5.0,5.0,84,0.00,,,0.00,Wunderground v.1.15,2013-06-27 21:41:00,
2013-06-27 17:46:00,78.3,72.7,29.64,South,189,1.0,6.0,83,0.00,,,0.00,Wunderground v.1.15,2013-06-27 21:46:00,
2013-06-27 17:51:00,78.3,72.3,29.64,South,188,2.0,6.0,82,0.00,,,0.00,Wunderground v.1.15,2013-06-27 21:51:00,
2013-06-27 17:56:00,78.7,73.1,29.64,South,177,6.0,6.0,83,0.00,,,0.00,Wunderground v.1.15,2013-06-27 21:56:00,
2013-06-27 18:01:00,78.2,72.3,29.64,SW,214,2.0,6.0,82,0.00,,,0.00,Wunderground v.1.15,2013-06-27 22:01:00,
2013-06-27 18:07:00,78.3,72.3,29.64,SW,221,4.0,6.0,82,0.00,,,0.00,Wunderground v.1.15,2013-06-27 22:07:00,
2013-06-27 18:12:00,78.7,73.1,29.64,SSW,202,0.0,2.0,83,0.00,,,0.00,Wunderground v.1.15,2013-06-27 22:12:00,
2013-06-27 18:17:00,78.7,72.4,29.64,SSW,192,1.0,7.0,81,0.00,,,0.00,Wunderground v.1.15,2013-06-27 22:17:00,
2013-06-27 18:22:00,78.7,72.4,29.64,SW,220,4.0,6.0,81,0.00,,,0.00,Wunderground v.1.15,2013-06-27 22:22:00,
2013-06-27 18:28:00,78.6,72.6,29.64,SSW,192,4.0,6.0,82,0.00,,,0.00,Wunderground v.1.15,2013-06-27 22:28:00,
2013-06-27 18:33:00,78.2,72.6,29.64,South,172,0.0,2.0,83,0.00,,,0.00,Wunderground v.1.15,2013-06-27 22:33:00,
2013-06-27 18:38:00,78.3,72.7,29.64,WSW,256,1.0,3.0,83,0.00,,,0.00,Wunderground v.1.15,2013-06-27 22:38:00,
2013-06-27 18:43:00,78.4,72.4,29.64,SW,223,4.0,4.0,82,0.00,,,0.00,Wunderground v.1.15,2013-06-27 22:43:00,
2013-06-27 18:48:00,78.4,72.4,29.65,SSW,194,2.0,4.0,82,0.00,,,0.00,Wunderground v.1.15,2013-06-27 22:48:00,
2013-06-27 18:53:00,78.4,72.4,29.65,SW,219,1.0,6.0,82,0.00,,,0.00,Wunderground v.1.15,2013-06-27 22:53:00,
2013-06-27 18:58:00,78.4,72.4,29.65,NNW,340,2.0,6.0,82,0.00,,,0.00,Wunderground v.1.15,2013-06-27 22:58:00,
2013-06-27 19:03:00,78.3,72.3,29.65,SW,216,1.0,5.0,82,0.00,,,0.00,Wunderground v.1.15,2013-06-27 23:03:00,
2013-06-27 19:09:00,78.1,72.2,29.65,SSW,213,2.0,5.0,82,0.00,,,0.00,Wunderground v.1.15,2013-06-27 23:09:00,
2013-06-27 19:14:00,78.2,72.3,29.65,SSW,201,0.0,3.0,82,0.00,,,0.00,Wunderground v.1.15,2013-06-27 23:14:00,
2013-06-27 19:19:00,78.3,72.3,29.65,SW,215,0.0,5.0,82,0.00,,,0.00,Wunderground v.1.15,2013-06-27 23:19:00,
2013-06-27 19:24:00,78.2,72.3,29.65,SW,215,1.0,3.0,82,0.00,,,0.00,Wunderground v.1.15,2013-06-27 23:24:00,
2013-06-27 19:29:00,78.0,72.4,29.65,SW,215,1.0,3.0,83,0.00,,,0.00,Wunderground v.1.15,2013-06-27 23:29:00,
2013-06-27 19:34:00,77.8,72.6,29.65,SW,215,1.0,2.0,84,0.00,,,0.00,Wunderground v.1.15,2013-06-27 23:34:00,
2013-06-27 19:39:00,77.6,72.4,29.65,SW,215,0.0,2.0,84,0.00,,,0.00,Wunderground v.1.15,2013-06-27 23:39:00,
2013-06-27 19:44:00,77.5,72.6,29.65,SW,230,1.0,4.0,85,0.00,,,0.00,Wunderground v.1.15,2013-06-27 23:44:00,
2013-06-27 19:50:00,77.5,72.6,29.65,SW,230,0.0,1.0,85,0.00,,,0.00,Wunderground v.1.15,2013-06-27 23:50:00,
2013-06-27 19:55:00,77.5,72.6,29.65,SW,230,0.0,3.0,85,0.00,,,0.00,Wunderground v.1.15,2013-06-27 23:55:00,
2013-06-27 20:00:00,77.5,72.6,29.65,NNE,19,0.0,0.0,85,0.00,,,0.00,Wunderground v.1.15,2013-06-28 00:00:00,
2013-06-27 20:06:00,77.6,72.7,29.65,NNE,19,0.0,0.0,85,0.00,,,0.00,Wunderground v.1.15,2013-06-28 00:06:00,
2013-06-27 20:11:00,77.6,73.1,29.65,NNE,19,0.0,0.0,86,0.00,,,0.00,Wunderground v.1.15,2013-06-28 00:11:00,
2013-06-27 20:16:00,77.5,73.0,29.65,NNE,19,0.0,0.0,86,0.00,,,0.00,Wunderground v.1.15,2013-06-28 00:16:00,
2013-06-27 20:21:00,77.3,72.8,29.65,NNE,19,0.0,0.0,86,0.00,,,0.00,Wunderground v.1.15,2013-06-28 00:21:00,
2013-06-27 20:26:00,77.1,72.9,29.65,NNE,19,0.0,0.0,87,0.00,,,0.00,Wunderground v.1.15,2013-06-28 00:26:00,
2013-06-27 20:32:00,77.0,72.5,29.65,NNE,19,0.0,0.0,86,0.00,,,0.00,Wunderground v.1.15,2013-06-28 00:32:00,
2013-06-27 20:37:00,77.0,72.8,29.65,NNE,19,0.0,1.0,87,0.00,,,0.00,Wunderground v.1.15,2013-06-28 00:37:00,
2013-06-27 20:42:00,77.0,72.5,29.65,NNE,19,0.0,0.0,86,0.00,,,0.00,Wunderground v.1.15,2013-06-28 00:42:00,
2013-06-27 20:47:00,77.1,72.9,29.65,SW,228,1.0,6.0,87,0.00,,,0.00,Wunderground v.1.15,2013-06-28 00:47:00,
2013-06-27 20:52:00,76.9,72.7,29.65,West,280,3.0,3.0,87,0.00,,,0.00,Wunderground v.1.15,2013-06-28 00:52:00,
2013-06-27 20:57:00,76.6,72.4,29.65,SE,127,2.0,3.0,87,0.00,,,0.00,Wunderground v.1.15,2013-06-28 00:57:00,
2013-06-27 21:03:00,76.3,72.1,29.65,East,98,1.0,2.0,87,0.00,,,0.00,Wunderground v.1.15,2013-06-28 01:03:00,
2013-06-27 21:09:00,76.1,72.3,29.66,WSW,240,1.0,4.0,88,0.00,,,0.00,Wunderground v.1.15,2013-06-28 01:09:00,
2013-06-27 21:14:00,75.8,72.0,29.66,SW,220,3.0,3.0,88,0.00,,,0.00,Wunderground v.1.15,2013-06-28 01:14:00,
2013-06-27 21:19:00,75.4,71.6,29.66,NW,310,2.0,3.0,88,0.00,,,0.00,Wunderground v.1.15,2013-06-28 01:19:00,
2013-06-27 21:24:00,75.1,71.6,29.66,SW,219,4.0,5.0,89,0.00,,,0.00,Wunderground v.1.15,2013-06-28 01:24:00,
2013-06-27 21:29:00,74.9,71.4,29.66,SW,215,2.0,5.0,89,0.00,,,0.00,Wunderground v.1.15,2013-06-28 01:29:00,
2013-06-27 21:34:00,74.9,71.4,29.66,SW,215,2.0,4.0,89,0.00,,,0.00,Wunderground v.1.15,2013-06-28 01:34:00,
2013-06-27 21:40:00,74.8,71.7,29.66,SW,215,0.0,4.0,90,0.00,,,0.00,Wunderground v.1.15,2013-06-28 01:40:00,
2013-06-27 21:45:00,74.6,71.5,29.66,SSW,213,0.0,2.0,90,0.00,,,0.00,Wunderground v.1.15,2013-06-28 01:45:00,
2013-06-27 21:50:00,74.6,71.5,29.66,SSW,213,0.0,0.0,90,0.00,,,0.00,Wunderground v.1.15,2013-06-28 01:50:00,
2013-06-27 21:55:00,74.5,71.7,29.67,SSW,213,0.0,0.0,91,0.00,,,0.00,Wunderground v.1.15,2013-06-28 01:55:00,
2013-06-27 22:00:00,74.5,71.7,29.67,SW,217,0.0,2.0,91,0.00,,,0.00,Wunderground v.1.15,2013-06-28 02:00:00,
2013-06-27 22:06:00,74.6,71.8,29.67,SSW,204,2.0,4.0,91,0.00,,,0.00,Wunderground v.1.15,2013-06-28 02:06:00,
2013-06-27 22:11:00,74.7,71.6,29.67,SSW,210,1.0,2.0,90,0.00,,,0.00,Wunderground v.1.15,2013-06-28 02:11:00,
2013-06-27 22:16:00,74.7,71.6,29.67,SSW,210,0.0,2.0,90,0.00,,,0.00,Wunderground v.1.15,2013-06-28 02:16:00,
2013-06-27 22:21:00,74.4,71.3,29.66,South,182,0.0,2.0,90,0.00,,,0.00,Wunderground v.1.15,2013-06-28 02:21:00,
2013-06-27 22:26:00,74.3,71.5,29.66,South,182,1.0,2.0,91,0.00,,,0.00,Wunderground v.1.15,2013-06-28 02:26:00,
2013-06-27 22:31:00,74.1,71.3,29.66,SSW,204,0.0,1.0,91,0.00,,,0.00,Wunderground v.1.15,2013-06-28 02:31:00,
2013-06-27 22:36:00,73.9,71.1,29.66,SSW,204,0.0,2.0,91,0.00,,,0.00,Wunderground v.1.15,2013-06-28 02:36:00,
2013-06-27 22:41:00,73.8,71.0,29.66,SSW,204,0.0,0.0,91,0.00,,,0.00,Wunderground v.1.15,2013-06-28 02:41:00,
2013-06-27 22:46:00,73.7,71.2,29.66,SSW,204,0.0,1.0,92,0.00,,,0.00,Wunderground v.1.15,2013-06-28 02:46:00,
2013-06-27 22:51:00,73.5,71.0,29.66,SSW,204,0.0,0.0,92,0.00,,,0.00,Wunderground v.1.15,2013-06-28 02:51:00,
2013-06-27 22:57:00,73.3,70.8,29.66,SSW,204,0.0,0.0,92,0.00,,,0.00,Wunderground v.1.15,2013-06-28 02:57:00,
2013-06-27 23:02:00,73.1,70.6,29.65,SSW,204,0.0,0.0,92,0.00,,,0.00,Wunderground v.1.15,2013-06-28 03:02:00,
2013-06-27 23:07:00,73.1,71.0,29.65,SSW,204,0.0,3.0,93,0.00,,,0.00,Wunderground v.1.15,2013-06-28 03:07:00,
2013-06-27 23:13:00,72.9,70.8,29.66,SSW,204,0.0,1.0,93,0.00,,,0.00,Wunderground v.1.15,2013-06-28 03:13:00,
2013-06-27 23:18:00,72.9,70.8,29.66,SSW,204,0.0,1.0,93,0.00,,,0.00,Wunderground v.1.15,2013-06-28 03:18:00,
2013-06-27 23:23:00,72.8,70.7,29.66,SSW,204,0.0,1.0,93,0.00,,,0.00,Wunderground v.1.15,2013-06-28 03:23:00,
2013-06-27 23:28:00,72.7,70.6,29.66,SSW,204,0.0,1.0,93,0.00,,,0.00,Wunderground v.1.15,2013-06-28 03:28:00,
2013-06-27 23:33:00,72.7,70.9,29.66,SSW,204,0.0,2.0,94,0.00,,,0.00,Wunderground v.1.15,2013-06-28 03:33:00,
2013-06-27 23:38:00,72.6,70.5,29.65,SSW,204,0.0,2.0,93,0.00,,,0.00,Wunderground v.1.15,2013-06-28 03:38:00,
2013-06-27 23:43:00,72.6,70.8,29.65,SSW,204,1.0,1.0,94,0.00,,,0.00,Wunderground v.1.15,2013-06-28 03:43:00,
2013-06-27 23:48:00,72.6,70.8,29.65,South,191,0.0,3.0,94,0.00,,,0.00,Wunderground v.1.15,2013-06-28 03:48:00,
2013-06-27 23:54:00,72.7,70.6,29.65,SSW,209,3.0,3.0,93,0.00,,,0.00,Wunderground v.1.15,2013-06-28 03:54:00,
2013-06-27 23:59:00,73.0,70.9,29.65,SSW,201,1.0,3.0,93,0.00,,,0.00,Wunderground v.1.15,2013-06-28 03:59:00,